KC4BAM Weather Reports


time (UTC)temp
C
wind
direction
speed
KPH
gust
KPH
rain 1hr
cm
rain 24hr
cm
rain mn
cm
humidity
%
barometer
mb
20260504150924 21 194 9.7 11.3 0.00 0.00 0.00 55 1003.4
20260504150420 21 181 6.4 11.3 0.00 0.00 0.00 56 1003.3
20260504140847 19 238 9.7 14.5 0.00 0.00 0.00 58 1003.7
20260504140343 19 215 3.2 11.3 0.00 0.00 0.00 58 1003.7
20260504130812 17 234 6.4 11.3 0.00 0.00 0.00 62 1003.9
20260504130308 17 240 6.4 14.5 0.00 0.00 0.00 62 1003.7
20260504120226 15 224 6.4 9.7 0.00 0.00 0.00 64 1003.5
20260504110653 14 206 3.2 6.4 0.00 0.00 0.00 64 1003.2
20260504110149 14 186 3.2 4.8 0.00 0.00 0.00 63 1003.2
20260504100609 15 166 4.8 6.4 0.00 0.00 0.00 60 1003.2
20260504100107 15 210 4.8 11.3 0.00 0.00 0.00 60 1002.9
20260504082002 15 192 3.2 11.3 0.00 0.00 0.00 58 1003.1
20260504081501 15 226 6.4 11.3 0.00 0.00 0.00 58 1003.3
20260504080956 14 231 6.4 9.7 0.00 0.00 0.00 58 1003.2
20260504080452 14 178 6.4 11.3 0.00 0.00 0.00 58 1003.2
20260504050253 13 193 0.0 1.6 0.00 0.00 0.00 58 1004.9
20260504045750 13 199 1.6 1.6 0.00 0.00 0.00 58 1004.9
20260504045245 13 209 3.2 3.2 0.00 0.00 0.00 58 1004.9
20260504044743 13 197 1.6 3.2 0.00 0.00 0.00 59 1004.8
20260504044240 13 191 1.6 3.2 0.00 0.00 0.00 59 1005.0
20260504043737 13 192 0.0 0.0 0.00 0.00 0.00 60 1005.0
20260504043234 13 192 0.0 0.0 0.00 0.00 0.00 61 1004.9
20260504042732 12 192 0.0 0.0 0.00 0.00 0.00 62 1005.2
20260504042228 12 186 0.0 0.0 0.00 0.00 0.00 62 1005.1
20260504041724 13 186 0.0 0.0 0.00 0.00 0.00 61 1005.3
20260504041220 13 186 0.0 0.0 0.00 0.00 0.00 58 1005.2
20260504040716 13 186 0.0 0.0 0.00 0.00 0.00 57 1005.3
20260504040214 13 183 0.0 0.0 0.00 0.00 0.00 56 1005.3
20260504035710 13 181 0.0 0.0 0.00 0.00 0.00 56 1005.3
20260504035207 14 184 0.0 0.0 0.00 0.00 0.00 55 1005.1
20260504034704 14 183 0.0 0.0 0.00 0.00 0.00 54 1005.4
20260504034201 15 189 0.0 0.0 0.00 0.00 0.00 53 1005.3
20260504033659 15 186 0.0 1.6 0.00 0.00 0.00 52 1005.4
20260504033156 15 191 0.0 3.2 0.00 0.00 0.00 51 1005.2
20260504032653 16 191 0.0 1.6 0.00 0.00 0.00 51 1005.1
20260504032151 16 220 3.2 9.7 0.00 0.00 0.00 50 1005.0
20260504031647 16 203 1.6 9.7 0.00 0.00 0.00 50 1004.9
20260504031143 16 189 3.2 6.4 0.00 0.00 0.00 50 1004.9
20260504030641 16 194 3.2 9.7 0.00 0.00 0.00 49 1004.9
20260504030137 16 194 1.6 11.3 0.00 0.00 0.00 49 1004.7
20260504025634 16 240 9.7 11.3 0.00 0.00 0.00 49 1004.8
20260504025131 16 206 4.8 11.3 0.00 0.00 0.00 49 1004.7
20260504024628 16 236 9.7 12.9 0.00 0.00 0.00 49 1004.6
20260504024124 16 217 11.3 14.5 0.00 0.00 0.00 49 1004.8
20260504023621 16 231 4.8 11.3 0.00 0.00 0.00 49 1004.8
20260504023117 16 225 8.0 11.3 0.00 0.00 0.00 49 1004.8
20260504022613 16 188 1.6 4.8 0.00 0.00 0.00 49 1004.9
20260504022109 16 217 1.6 9.7 0.00 0.00 0.00 48 1004.9
20260504021608 16 217 4.8 4.8 0.00 0.00 0.00 48 1004.9
20260504021104 16 200 1.6 4.8 0.00 0.00 0.00 47 1005.1
20260504020601 16 206 3.2 3.2 0.00 0.00 0.00 47 1004.9
20260504020057 17 211 3.2 4.8 0.00 0.00 0.00 47 1005.3
20260504015554 17 212 3.2 6.4 0.00 0.00 0.00 46 1005.4
20260504015049 17 211 4.8 6.4 0.00 0.00 0.00 46 1005.2
20260504014546 17 197 1.6 1.6 0.00 0.00 0.00 46 1005.5
20260504014043 17 194 3.2 3.2 0.00 0.00 0.00 46 1005.4
20260504013541 17 215 4.8 4.8 0.00 0.00 0.00 46 1005.6
20260504013038 17 202 1.6 3.2 0.00 0.00 0.00 46 1005.3
20260504012535 17 200 3.2 3.2 0.00 0.00 0.00 46 1005.4
20260504012033 17 192 0.0 1.6 0.00 0.00 0.00 46 1005.2
20260504011530 17 208 3.2 6.4 0.00 0.00 0.00 44 1005.1
20260504011026 17 197 1.6 3.2 0.00 0.00 0.00 44 1005.0
20260504010521 17 210 3.2 3.2 0.00 0.00 0.00 44 1004.9
20260504010017 17 192 1.6 4.8 0.00 0.00 0.00 43 1005.0
20260504005514 18 243 3.2 4.8 0.00 0.00 0.00 43 1005.2
20260504005012 18 221 4.8 4.8 0.00 0.00 0.00 42 1005.2
20260504004509 18 195 4.8 4.8 0.00 0.00 0.00 42 1004.9
20260504004006 18 229 6.4 9.7 0.00 0.00 0.00 42 1004.8
20260504003502 18 215 4.8 6.4 0.00 0.00 0.00 41 1004.8
20260504002959 18 228 8.0 11.3 0.00 0.00 0.00 41 1004.7
20260504002456 18 211 4.8 11.3 0.00 0.00 0.00 41 1005.0
20260504001953 18 213 3.2 6.4 0.00 0.00 0.00 41 1004.9
20260504001451 18 176 6.4 12.9 0.00 0.00 0.00 41 1004.9
20260504000947 18 177 3.2 6.4 0.00 0.00 0.00 41 1005.0
20260504000444 18 225 6.4 11.3 0.00 0.00 0.00 40 1005.1
20260503235942 19 230 4.8 6.4 0.00 0.00 0.00 40 1005.3
20260503235439 19 220 8.0 11.3 0.00 0.00 0.00 40 1005.1
20260503234936 19 233 6.4 9.7 0.00 0.00 0.00 40 1005.1
20260503234434 19 209 6.4 12.9 0.00 0.00 0.00 40 1005.3
20260503233932 19 238 11.3 17.7 0.00 0.00 0.00 40 1005.4
20260503233428 19 225 4.8 9.7 0.00 0.00 0.00 40 1005.4
20260503232925 19 199 6.4 11.3 0.00 0.00 0.00 40 1005.3
20260503232422 19 207 4.8 6.4 0.00 0.00 0.00 40 1005.5
20260503231920 19 249 8.0 9.7 0.00 0.00 0.00 40 1005.6
20260503231417 20 178 3.2 11.3 0.00 0.00 0.00 39 1005.4
20260503230913 19 222 6.4 11.3 0.00 0.00 0.00 40 1005.7
20260503230409 20 221 6.4 11.3 0.00 0.00 0.00 39 1005.8
20260503225908 20 234 8.0 11.3 0.00 0.00 0.00 39 1005.8
20260503225403 19 234 9.7 14.5 0.00 0.00 0.00 39 1006.0
20260503224859 19 201 9.7 14.5 0.00 0.00 0.00 39 1006.0
20260503224357 20 189 4.8 9.7 0.00 0.00 0.00 40 1006.0
20260503223854 20 232 6.4 11.3 0.00 0.00 0.00 39 1006.1
20260503223352 20 224 6.4 14.5 0.00 0.00 0.00 40 1006.2
20260503222847 20 216 4.8 9.7 0.00 0.00 0.00 40 1006.3
20260503222347 20 215 8.0 11.3 0.00 0.00 0.00 39 1006.2
20260503221844 20 191 6.4 14.5 0.00 0.00 0.00 39 1006.4
20260503221343 20 215 4.8 9.7 0.00 0.00 0.00 39 1006.5
20260503220838 20 237 11.3 16.1 0.00 0.00 0.00 38 1006.5
20260503220335 20 207 6.4 14.5 0.00 0.00 0.00 38 1006.7
20260503215832 20 221 6.4 11.3 0.00 0.00 0.00 38 1006.9
20260503215329 20 221 8.0 11.3 0.00 0.00 0.00 39 1006.7
20260503214827 20 234 17.7 20.9 0.00 0.00 0.00 38 1006.8
20260503214324 20 189 9.7 16.1 0.00 0.00 0.00 38 1006.8
20260503213821 20 186 8.0 12.9 0.00 0.00 0.00 37 1006.8
20260503213319 20 241 11.3 12.9 0.00 0.00 0.00 38 1006.9
20260503212815 20 181 8.0 11.3 0.00 0.00 0.00 37 1007.1
20260503212313 20 208 8.0 12.9 0.00 0.00 0.00 37 1007.3
20260503211810 20 228 3.2 12.9 0.00 0.00 0.00 38 1007.2
20260503211307 20 240 6.4 9.7 0.00 0.00 0.00 37 1007.4
20260503210807 20 233 9.7 14.5 0.00 0.00 0.00 37 1007.5
20260503210305 20 216 8.0 16.1 0.00 0.00 0.00 37 1007.6
20260503205800 20 243 8.0 16.1 0.00 0.00 0.00 37 1007.8
20260503205257 20 217 3.2 11.3 0.00 0.00 0.00 37 1007.7
20260503204753 20 238 6.4 16.1 0.00 0.00 0.00 37 1007.9
20260503204251 20 223 11.3 14.5 0.00 0.00 0.00 37 1007.9
20260503203748 20 177 4.8 14.5 0.00 0.00 0.00 36 1007.9
20260503203245 20 219 6.4 11.3 0.00 0.00 0.00 37 1008.1
20260503202742 20 201 3.2 14.5 0.00 0.00 0.00 37 1008.0
20260503202240 20 203 3.2 11.3 0.00 0.00 0.00 36 1008.1
20260503201738 20 220 9.7 14.5 0.00 0.00 0.00 35 1008.4
20260503201235 20 180 3.2 11.3 0.00 0.00 0.00 35 1008.5
20260503200731 20 189 0.0 6.4 0.00 0.00 0.00 38 1008.5
20260503200228 20 209 6.4 9.7 0.00 0.00 0.00 36 1008.6
20260503195725 20 195 4.8 16.1 0.00 0.00 0.00 36 1008.9
20260503195222 20 240 8.0 12.9 0.00 0.00 0.00 37 1008.9
20260503194719 20 187 9.7 11.3 0.00 0.00 0.00 37 1009.0
20260503194215 20 205 4.8 12.9 0.00 0.00 0.00 37 1009.0
20260503193711 20 231 8.0 12.9 0.00 0.00 0.00 37 1009.3
20260503193207 20 198 8.0 16.1 0.00 0.00 0.00 36 1009.4
20260503192703 20 242 4.8 9.7 0.00 0.00 0.00 36 1009.6
20260503192158 20 228 6.4 9.7 0.00 0.00 0.00 37 1009.5
20260503191655 19 197 4.8 11.3 0.00 0.00 0.00 37 1009.7
20260503191152 18 179 4.8 14.5 0.00 0.00 0.00 37 1009.7
20260503190649 19 222 14.5 20.9 0.00 0.00 0.00 37 1010.0
20260503190146 20 222 6.4 9.7 0.00 0.00 0.00 37 1009.9
20260503185643 19 214 6.4 14.5 0.00 0.00 0.00 38 1009.9
20260503185138 19 231 9.7 16.1 0.00 0.00 0.00 37 1010.3
20260503184633 18 180 1.6 11.3 0.00 0.00 0.00 38 1010.1
20260503184130 18 224 9.7 14.5 0.00 0.00 0.00 37 1010.1
20260503183626 18 222 6.4 14.5 0.00 0.00 0.00 37 1010.3
20260503183124 19 215 1.6 4.8 0.00 0.00 0.00 39 1010.2
20260503182622 18 224 11.3 14.5 0.00 0.00 0.00 38 1010.3
20260503182120 18 219 6.4 11.3 0.00 0.00 0.00 37 1010.4
20260503181617 18 193 0.0 6.4 0.00 0.00 0.00 40 1010.2
20260503181113 18 225 9.7 17.7 0.00 0.00 0.00 39 1010.4
20260503180610 18 214 8.0 16.1 0.00 0.00 0.00 39 1010.4
20260503180108 18 259 12.9 17.7 0.00 0.00 0.00 39 1010.3
20260503175605 18 185 1.6 4.8 0.00 0.00 0.00 41 1010.5
20260503175102 17 207 4.8 6.4 0.00 0.00 0.00 41 1010.6
20260503174559 18 234 11.3 14.5 0.00 0.00 0.00 39 1011.0
20260503174055 18 245 9.7 9.7 0.00 0.00 0.00 39 1010.9
20260503173550 17 189 6.4 11.3 0.00 0.00 0.00 39 1010.8
20260503173047 17 207 0.0 6.4 0.00 0.00 0.00 40 1011.1
20260503172545 17 222 9.7 14.5 0.00 0.00 0.00 41 1011.2
20260503172042 17 189 6.4 9.7 0.00 0.00 0.00 41 1011.1
20260503171538 18 187 0.0 4.8 0.00 0.00 0.00 41 1011.2
20260503171036 17 83 0.0 3.2 0.00 0.00 0.00 40 1011.3
20260503170532 17 195 1.6 6.4 0.00 0.00 0.00 40 1011.4